Regional Weather Roundup
Issued by NWS

Home | Current Version | Previous Version | Graphics & Text | Print | Product List | Glossary Off
Versions: 1 2 3 4 5 6 7 8 9 10 11 12 13 14 15 16 17 18 19 20 21 22 23 24 25 26 27 28 29 30 31 32 33 34 35 36 37 38 39 40 41 42 43 44 45 46 47 48 49 50

000
ASUS43 KMPX 291110
RWRMN
WEATHER ROUNDUP FOR MINNESOTA
NATIONAL WEATHER SERVICE TWIN CITIES/CHANHASSEN MN
600 AM CDT MON AUG 29 2016


NOTE: "FAIR" INDICATES FEW OR NO CLOUDS BELOW 12,000 FEET WITH NO
SIGNIFICANT WEATHER AND/OR OBSTRUCTIONS TO VISIBILITY. N/A MEANS
CURRENT SKY AND/OR WEATHER CONDITIONS ARE NOT AVAILABLE.

MNZ060>063-068>070-291200-
   Twin Cities Metro

CITY           SKY/WX    TMP DP  RH WIND       PRES   REMARKS
TWIN CITIES    PTCLDY    70  68  93 SE3       30.15R
ST PAUL        CLEAR     70  68  93 SE3       30.16R
CRYSTAL        CLEAR     68  65  90 CALM      30.15R FOG
BLAINE         CLEAR     70  70 100 CALM      30.16R FOG
LAKEVILLE        N/A     64  64 100 CALM      30.16S FOG
EDEN PRAIRIE   CLEAR     71  67  87 S5        30.14S
LAKEVILLE        N/A     64  64 100 CALM      30.16S FOG
SOUTH ST PAUL  CLEAR     69  68  98 CALM      30.15S FOG
LAKE ELMO      FAIR      68  68 100 CALM      30.18R FOG
$$
MNZ001>005-007-008-013>017-022>024-027-028-291200-
   Northwest Minnesota

CITY           SKY/WX    TMP DP  RH WIND       PRES   REMARKS
BEMIDJI        CLOUDY    63  61  94 S7        30.09S
HALLOCK        CLOUDY    66  64  94 CALM      30.06R
ROSEAU         CLOUDY    64  59  82 SE6       30.06S
WARROAD        CLOUDY    63  59  88 S3        30.07F
THIEF RVR FALL CLOUDY    68  64  87 NE10      30.09R
CROOKSTON      LGT RAIN  68  64  88 W6        30.08R
FOSSTON        CLOUDY    64  63  94 SE8       30.06F
DETROIT LAKES  CLOUDY    68  63  83 SE14G21   30.12R
MOORHEAD       CLEAR     68  64  88 SE7       30.04R
PARK RAPIDS    CLOUDY    66  61  84 SE12      30.10F
MAHNOMEN       CLOUDY    69  60  73 SE14G22   30.06S
$$
MNZ006-009>011-018-025>026-291200-
   North Central Minnesota

CITY           SKY/WX    TMP DP  RH WIND       PRES   REMARKS
BAUDETTE       CLOUDY    64  62  93 S6        30.08R
FLAG ISLAND    CLOUDY    66  63  88 SE7       30.05F
INTL FALLS     CLOUDY    63  61  93 SE3       30.10R
WASKISH        CLOUDY    64  63  94 S3        30.08S
BIG FORK       CLOUDY    63  61  94 CALM      30.12R
LONGVILLE      CLOUDY    63  63 100 SE5G16    30.11F
GRAND RAPIDS   LGT RAIN  61  60  97 S12G23    30.13F
CRANE LAKE     CLOUDY    61  61 100 CALM      30.13R
ORR            CLOUDY    61  57  88 CALM      30.09F
COOK           CLOUDY    63  61  94 CALM      30.11F
WALKER         FAIR      64  62  93 S12       30.08F THUNDER
$$
MNZ012-019>021-037-291200-
   Northeast Minnesota

CITY           SKY/WX    TMP DP  RH WIND       PRES   REMARKS
DULUTH         LGT RAIN  63  61  93 NW5       30.22R
ELY            LGT RAIN  61  61 100 S10G21    30.10F
HIBBING        LGT RAIN  60  60 100 SE13      30.11F
EVELETH        LGT RAIN  63  62  97 S14G20    30.13F
DULUTH HARBOR  RAIN      64  63  94 CALM      30.21S
TWO HARBORS    CLOUDY    64  61  88 SW7       30.19R
SILVER BAY     LGT RAIN  63  63 100 CALM      30.15F
GRAND MARAIS     N/A     65  63  93 NE3       30.13F
G MARAIS ARPRT RAIN      61  57  88 SE3       30.18R
$$
MNZ029>031-032-039>041-046>048-054>057-064-291200-
   West Central Minnesota

CITY           SKY/WX    TMP DP  RH WIND       PRES   REMARKS
FERGUS FALLS   CLOUDY    70  68  94 SE10      30.08R
WHEATON        CLOUDY    72  70  94 SE6       30.06R
MORRIS         CLOUDY    70  68  94 E9G22     30.08R
ALEXANDRIA     TSTM      66  64  93 S8G20     30.19R VSB 3/4
ELBOW LAKE     CLOUDY    69  66  90 E10       30.10R
WADENA         CLOUDY    64  63  94 E12G18    30.16R
GLENWOOD       CLOUDY    70  63  78 E14G20    30.16R THUNDER
APPLETON       CLEAR     72  66  83 S9        30.06S
BENSON         CLEAR     70  64  83 SE9       30.09R
ORTONVILLE     CLEAR     70  66  88 S5        30.04S
MADISON        CLEAR     70  66  88 S8        30.07S
WILLMAR        FAIR      66  64  94 NE7       30.13R
$$
MNZ033>034-036-042>043-049>051-058-059-291200-
   Central Minnesota

CITY           SKY/WX    TMP DP  RH WIND       PRES   REMARKS
ST CLOUD       CLOUDY    70  69  97 E6        30.16S
SAUK CENTRE    CLOUDY    69  61  74 NE9G17    30.17R
PAYNESVILLE    PTCLDY    69  69 100 E5        30.16R
AITKIN         MIX PCPN  66  61  82 NE7       30.19S
PINE RIVER     CLOUDY    63  63 100 S15       30.19R THUNDER
BRAINERD       LGT RAIN  64  63  96 N5        30.21R FOG
STAPLES        TSTM      63  63 100 E6        30.17R
LONG PRAIRIE   TSTM      68  61  77 SW13      30.20R
LITTLE FALLS   CLOUDY    64  61  88 NE6       30.16S
LITCHFIELD     CLEAR     70  66  88 CALM      30.16R
BUFFALO        CLEAR     67  65  91 CALM      30.17R
MAPLE LAKE     PTCLDY    68  67  98 CALM      30.18R FOG
HUTCHINSON     CLOUDY    67  66  96 CALM      30.14S
$$
MNZ037-044-045-052-053-291200-
   East Central Minnesota

CITY           SKY/WX    TMP DP  RH WIND       PRES   REMARKS
PRINCETON      CLOUDY    70  68  94 CALM      30.17F
MORA           CLOUDY    64  63  94 NE3       30.20R
CAMBRIDGE      CLOUDY    72  68  88 CALM      30.16S
RUSH CITY      CLOUDY    68  66  94 NE5       30.19S
MOOSE LAKE     CLOUDY    63  61  94 NE3       30.19R
HINCKLEY       CLOUDY    64  64 100 N5        30.18S
CLOQUET        LGT RAIN  63  61  94 NE3       30.19F
MCGREGOR       CLOUDY    63  61  94 NE3       30.21R
$$
MNZ071>073-080-081-089-090-097-098-291200-
   Southwest Minnesota

CITY           SKY/WX    TMP DP  RH WIND       PRES   REMARKS
MONTEVIDEO     CLEAR     66  66 100 SW9       30.11R
GRANITE FALLS  CLEAR     67  65  93 S8        30.10S
CANBY          CLEAR     72  66  82 SW9       30.09S
MARSHALL       CLEAR     69  65  86 SW10      30.10F
REDWOOD FALLS  CLEAR     67  63  87 S12       30.10F
OLIVIA         CLEAR     68  63  83 S6        30.11S
PIPESTONE      CLEAR     64  63  94 S6        30.14F
WINDOM         CLEAR     66  63  88 SW8       30.14F
WORTHINGTON    CLOUDY    66  63  90 SW8       30.15F
JACKSON          N/A     66  63  88 SW6       30.15F
TRACY          CLEAR     69  65  88 SW13      30.12F
SLAYTON        CLEAR     64  63  94 S10       30.14F
$$
MNZ065>067-074>077-082>085-091>093-291200-
   South Central Minnesota

CITY           SKY/WX    TMP DP  RH WIND       PRES   REMARKS
MANKATO        CLEAR     66  63  88 S5        30.15S
NEW ULM          N/A     64  64 100 S7        30.13S
ST JAMES       CLEAR     61  59  94 S5        30.14F
FAIRMONT       CLEAR     62  61  96 S6        30.15F
GLENCOE        CLEAR     68  67  98 S3        30.14R
FARIBAULT      CLEAR     66  66 100 CALM      30.17S FOG
OWATONNA       FOG       70  66  88 SE6       30.18R VSB 1/2
WASECA         CLEAR     63  61  94 E6        30.18S
ALBERT LEA       N/A     66  66 100 S5        30.17S FOG
$$
MNZ078>079-086>088-094>096-291200-
   Southeast Minnesota

CITY           SKY/WX    TMP DP  RH WIND       PRES   REMARKS
ROCHESTER      FOG       64  64 100 SE3       30.21R VSB 3/4
RED WING       CLEAR     72  70  94 SE6       30.16S
STANTON        CLEAR     70  68  94 S7        30.15S
DODGE CENTER   FOG       64  63  94 CALM      30.20R VSB 1/2
WINONA         FOG       68  68 100 CALM      30.21R VSB 1
AUSTIN         MOCLDY    66  64  94 CALM      30.19R FOG
PRESTON        CLEAR     64  63  95 SE5       30.22R FOG
$$
ABBREVIATIONS USED IN REMARKS
   TC - TEMPERATURES IN CELSIUS
  WCI - WIND CHILL INDEX
   HX - HEAT INDEX
  VSB - VISIBILITY
$$




USA.gov is the U.S. government's official web portal to all federal, state and local government web resources and services.